Regional Weather Roundup
Issued by NWS Cleveland, OH

Home | Current Version | Previous Version | Text Only | Print | Product List | Glossary On
Versions: 1 2 3 4 5 6 7 8 9 10 11 12 13 14 15 16 17 18 19 20 21 22 23 24 25 26 27 28 29 30 31 32 33 34 35 36 37 38 39 40 41 42 43 44 45 46 47 48 49 50
000
ASUS41 KCLE 261412
RWRCLE
OHIO REGIONAL WEATHER ROUNDUP
NATIONAL WEATHER SERVICE WILMINGTON, OH
1000 AM EDT TUE JUL 26 2016

NOTE: "FAIR" INDICATES FEW OR NO CLOUDS BELOW 12,000 FEET WITH NO
SIGNIFICANT WEATHER AND/OR OBSTRUCTIONS TO VISIBILITY.

OHZ001>008-015>018-024>027-034-035-043-044-261500-
   NORTHWEST OHIO

CITY           SKY/WX    TMP DP  RH WIND       PRES   REMARKS
DEFIANCE       FAIR      78  64  61 NE7       30.07F
FINDLAY        FAIR      79  64  60 E9        30.06S
TOLEDO EXPRESS FAIR      76  67  73 VRB5      30.06F
TOLEDO EXEC    FAIR      79  65  62 E7        30.07S
LIMA           FAIR      77  67  71 NE7       30.07S
$$

OHZ009>014-019>023-028>033-038-089-261500-
   NORTHEAST OHIO

CITY           SKY/WX    TMP DP  RH WIND       PRES   REMARKS
CLE-HOPKINS    FAIR      80  62  54 N10       30.08S
CLE-LAKEFRONT  FAIR      77  63  61 NE12      30.05S
CUY CO. ARPT   MOSUNNY   79  64  61 NE8       30.07S
LORAIN-ELYRIA  FAIR      77  64  64 E9        30.07S
ASHTABULA      FAIR      74  62  66 N5        30.08S
AKRON-CANTON   PTSUNNY   76  63  64 E9        30.07S
WOOSTER        FAIR      77  65  66 NE7       30.08S
MANSFIELD      FAIR      78  64  61 NE10      30.08S
YOUNGSTOWN     PTSUNNY   76  63  64 VRB7      30.07S
$$

OHZ042-051>053-060>062-070>072-077>081-261500-
  SOUTHWEST OHIO

CITY           SKY/WX    TMP DP  RH WIND       PRES   REMARKS
CINC-COVINGTON PTSUNNY   83  70  64 E5        30.05S
CINC-LUNKEN    FAIR      83  72  69 CALM      30.04S
HAMILTON       LGT RAIN  79  69  71 CALM      30.05S
DAYTON         PTSUNNY   78  65  63 VRB3      30.07S
WRIGHT-PAT AFB FAIR      79  67  66 VRB2      30.05S
DAYTON GENERAL FAIR      80  66  62 VRB3      30.05S
WILMINGTON     FAIR      77  70  79 NE5       30.05S
$$

OHZ036-037-039>041-045>050-054>059-063>069-073>076-082>088-261500-
  CENTRAL AND SOUTHEAST OHIO

CITY           SKY/WX    TMP DP  RH WIND       PRES   REMARKS
COLUMBUS       FAIR      79  67  66 CALM      30.04S
OSU AIRPORT    FAIR      81  69  67 VRB5      30.04F
BOLTON FIELD   SUNNY     79  70  73 NE3       30.05S
RICKENBACK AFB FAIR      78  69  73 E6        30.03F
NEWARK         FAIR      80  66  62 NE5       30.04F
MARION         FAIR      78  66  66 E7        30.06F
LANCASTER      FAIR      80  71  74 NE3       30.05S
ZANESVILLE     FAIR      83  68  60 VRB3      30.05S
NEW PHILLY     FAIR      82  66  58 VRB5      30.06S
$$



USA.gov is the U.S. government's official web portal to all federal, state and local government web resources and services.